Location: Bismarck
(46.7731°N, 100.8200°W)
Time: 20:20:05
(UTC-06:00)

ISS - Pass Details

Date: 29 November 2017
Orbit: 402 x 407 km, 51.6° (Epoch: 10 December)

Event Time Altitude Azimuth Distance (km) Brightness Sun altitude
Rises 22:54:21 0° 295° (WNW) 2,329 - -58.1°
Reaches altitude 10° 22:56:28 10° 300° (WNW) 1,466 - -58.3°
Maximum altitude 22:59:42 52° 18° (NNE) 509 - -58.7°
Drops below altitude 10° 23:02:54 10° 97° (E) 1,459 - -59.1°
Sets 23:05:01 0° 102° (ESE) 2,316 - -59.4°
